EHI
5 4 1 0 0 0 0 0 0 0 0 0 0 1 0 0 0 0 0 0 0 0 0 0 0 0 0 0 0 0 1 2 3 2 1 1 2 3 2 2 2 2 2 2 2 1 1 3 5
5 3 1 0 0 0 0 0 0 0 0 0 0 1 0 0 0 0 0 0 0 0 0 0 0 0 0 0 0 0 0 1 1 1 0 1 2 2 1 1 1 1 1 1 1 0 1 3 4
3 2 1 0 0 0 0 0 0 0 0 0 0 0 0 0 0 0 0 0 0 0 0 0 0 0 0 0 0 0 0 0 0 0 0 0 1 1 1 0 0 0 0 0 0 0 0 1 2
1 1 0 0 0 0 0 0 0 0 0 0 0 0 0 0 0 0 0 0 0 0 0 1 1 1 0 0 0 0 0 0 0 0 0 0 0 0 0 0 0 0 0 0 0 0 0 0 1
0 0 0 0 0 0 0 0 0 0 0 0 0 0 0 0 0 0 0 0 0 0 0 1 2 2 1 0 0 0 0 0 1 1 0 0 0 0 0 0 0 0 0 0 0 0 0 1 2
0 0 0 0 0 0 0 0 0 0 0 0 0 0 0 0 1 0 0 0 0 0 0 1 2 3 2 1 0 0 0 1 2 1 0 0 0 0 0 1 0 0 0 0 0 0 0 1 3
0 0 0 0 0 0 0 0 0 0 0 0 0 0 0 0 0 0 0 0 0 0 0 1 2 2 2 1 0 0 0 1 1 1 0 0 0 0 0 0 0 0 0 0 0 0 0 1 3
0 0 0 0 0 0 0 0 0 0 0 0 0 0 0 0 1 1 0 0 0 0 0 0 1 1 1 0 0 0 0 0 0 0 0 0 0 0 0 0 0 0 0 0 0 0 0 1 2
0 0 0 0 0 0 0 0 0 0 0 0 0 0 0 1 2 2 1 0 0 0 0 0 0 0 0 0 0 0 1 0 0 0 0 0 0 0 0 0 0 0 0 0 0 0 0 0 1
0 0 0 0 0 0 0 0 0 0 0 0 0 0 0 1 2 2 1 0 0 0 0 0 0 0 0 0 0 0 0 0 0 0 0 0 0 0 0 0 0 0 0 0 0 0 0 0 0
0 0 0 0 0 0 0 0 0 0 0 0 0 0 1 2 2 1 0 0 0 0 0 0 0 0 0 0 0 0 0 0 0 0 0 0 0 0 0 0 0 0 0 0 0 0 0 0 0
0 0 0 0 0 0 0 0 0 0 0 0 0 0 1 1 1 0 0 0 1 1 1 0 0 0 0 0 0 0 0 0 0 0 0 0 0 0 0 0 0 0 0 0 0 0 0 0 0
0 0 0 0 0 0 0 0 0 0 0 0 0 0 0 0 0 0 0 0 1 2 1 0 0 0 0 0 0 0 0 0 0 0 0 0 0 0 0 0 0 0 0 0 0 0 0 0 0
0 0 0 0 0 0 0 0 0 0 0 0 0 0 0 0 0 0 0 0 1 2 2 1 0 0 0 0 0 0 0 0 0 0 0 0 0 0 0 0 0 0 0 0 0 0 0 0 0
0 0 0 0 0 0 0 0 0 0 1 0 0 0 0 0 0 0 0 0 0 1 2 2 0 0 0 0 0 0 0 0 0 0 0 0 0 0 0 0 0 0 0 0 0 0 0 0 0
0 0 0 0 0 0 0 0 0 0 0 0 0 0 0 0 0 0 0 0 0 1 1 1 0 0 0 0 0 0 0 0 0 0 0 0 0 0 0 0 0 0 0 0 0 0 0 0 0
0 0 0 0 0 0 0 0 0 0 0 0 0 0 0 0 0 0 0 0 0 0 0 0 0 0 0 0 0 0 0 0 0 0 0 0 0 0 0 0 0 0 0 0 0 0 0 0 0
0 0 0 0 0 0 0 0 0 0 0 0 0 0 0 0 0 0 0 0 0 0 0 0 0 0 0 0 0 0 0 0 0 0 0 0 0 0 0 0 0 0 0 0 0 0 0 0 0
0 0 0 0 0 0 0 0 0 0 0 0 0 0 0 0 0 0 0 0 1 1 1 2 1 0 0 0 0 0 0 0 0 0 0 0 0 0 0 0 0 0 0 0 0 0 0 0 0
0 0 0 0 0 0 0 0 0 0 0 0 0 0 0 0 0 0 0 1 2 2 3 3 2 1 0 0 0 0 0 0 0 0 0 0 0 0 0 0 0 0 0 0 0 0 0 0 0
0 0 0 0 0 0 0 0 0 0 0 0 0 0 0 0 0 0 0 1 2 3 3 3 2 1 0 1 1 1 0 0 0 0 0 0 0 0 0 0 0 0 0 0 0 0 0 0 0
0 0 0 0 0 0 0 0 0 0 0 0 0 0 0 0 0 0 0 0 1 1 2 2 1 0 1 2 3 2 1 0 0 0 0 0 0 1 1 1 0 0 0 0 0 0 0 0 0
0 0 0 0 0 0 0 0 0 0 0 0 0 0 0 0 0 0 0 0 0 1 2 2 1 1 2 3 4 2 1 0 0 0 0 0 1 2 2 2 1 1 2 1 1 0 0 0 0
0 0 0 0 0 0 0 0 0 0 0 0 0 0 0 0 0 0 0 0 1 2 3 2 1 2 3 4 3 2 1 0 0 0 0 0 2 3 3 3 3 3 3 3 2 1 0 0 0
0 0 0 0 0 0 0 0 0 0 0 0 0 0 0 0 0 0 0 0 1 2 2 2 2 3 4 4 3 1 0 0 0 0 0 0 1 3 3 3 3 3 3 3 3 1 1 0 0
0 0 0 0 0 0 0 0 0 0 0 0 0 0 0 0 0 0 0 0 1 1 1 1 3 5 4 3 1 0 0 0 0 0 0 1 1 2 2 3 3 3 3 3 3 2 1 0 0
0 0 0 0 0 0 0 0 0 0 0 0 0 0 0 0 0 0 0 0 1 1 0 1 4 4 2 1 0 0 0 0 0 0 0 1 1 1 1 1 2 3 3 3 3 2 1 0 0
0 0 0 0 0 0 0 0 0 0 0 0 0 0 0 0 0 0 0 0 1 1 0 1 2 2 0 0 0 0 0 0 0 0 0 1 1 0 0 0 1 3 3 3 2 1 0 0 0
0 0 0 0 0 0 0 0 0 0 0 0 0 0 0 0 0 0 0 0 0 0 0 0 0 0 0 0 0 0 0 0 0 0 0 0 0 0 0 0 1 2 2 1 1 0 0 0 0
0 0 0 0 0 0 0 0 0 0 0 0 0 0 0 0 0 0 0 0 0 0 0 0 0 0 0 0 0 0 0 0 0 0 0 0 0 0 0 0 1 2 1 0 0 0 0 0 0
Wind_Speed
1 0 2 3 6 6 2 1 1 3 4 4 7 9 7 5 4 5 2 7 8 5 3 5 8 8 9 9 8 9 9 9 9 10 10 11 11 11 11 11 11 11 11 11 11 10 11 11 10
0 1 3 5 6 4 1 0 3 3 5 6 7 7 7 5 4 6 4 7 8 6 4 5 8 8 9 9 9 9 9 9 9 10 10 11 11 11 11 11 11 11 11 10 10 10 10 10 10
0 1 4 4 3 4 3 2 3 3 4 5 5 5 5 4 3 4 7 9 8 6 4 5 9 9 9 9 9 9 9 9 9 10 10 11 11 11 10 11 11 10 10 10 9 9 10 10 10
2 4 4 5 3 2 4 3 3 6 5 5 6 5 3 2 4 6 10 9 8 6 4 6 9 9 9 9 9 9 9 9 9 10 10 10 10 10 10 10 10 9 9 9 9 9 9 9 9
3 4 5 3 2 1 2 3 4 5 3 4 7 6 3 2 7 10 11 10 9 6 4 6 10 9 9 9 8 9 9 9 9 10 10 10 10 10 9 9 9 9 9 9 9 8 8 8 8
4 4 4 2 1 1 0 2 5 7 6 5 7 6 2 2 7 9 10 8 8 7 5 5 9 9 9 8 8 8 8 9 9 10 10 9 10 10 9 9 9 9 9 9 8 8 8 8 8
4 4 3 2 2 1 1 2 5 6 5 4 6 6 3 2 5 8 9 8 7 7 5 4 4 5 7 8 8 8 8 8 8 9 9 9 9 9 9 9 9 9 9 9 8 8 8 7 8
4 5 2 1 3 1 1 3 4 6 5 5 5 7 5 5 6 8 7 7 6 6 5 4 3 3 2 3 6 7 7 8 8 8 8 8 8 8 9 8 8 9 9 9 8 8 8 8 8
4 5 2 3 3 2 2 4 2 4 6 4 3 5 7 9 8 8 6 5 5 5 4 4 4 3 2 2 4 4 6 6 6 6 7 6 3 3 4 6 8 8 9 9 9 9 9 9 9
4 3 3 3 4 4 2 4 3 4 5 5 5 5 8 9 9 9 8 7 6 6 5 4 4 3 3 2 2 1 2 2 2 2 3 2 2 2 3 4 6 7 7 8 8 8 8 7 4
3 4 2 2 3 4 3 2 3 7 3 5 9 10 10 9 9 8 8 7 7 6 6 5 4 4 3 2 2 1 1 1 1 2 2 2 2 2 2 2 2 3 4 3 5 5 4 4 3
2 1 3 3 3 3 2 2 3 4 6 8 11 12 10 10 9 9 8 7 6 6 6 6 5 4 3 3 2 2 2 1 1 1 2 2 2 2 1 1 2 2 2 2 2 2 3 4 4
2 1 1 3 5 5 4 3 3 3 5 8 9 10 10 10 8 7 8 7 6 6 6 6 6 5 4 3 2 2 2 2 2 2 2 3 3 2 1 1 1 1 1 2 2 3 3 3 3
3 2 2 3 4 3 5 2 3 3 6 9 10 9 8 9 8 7 7 6 6 6 6 6 6 6 5 3 3 2 2 2 2 2 2 3 3 2 2 2 1 1 1 2 2 3 3 3 3
3 2 1 1 3 2 4 1 2 4 6 8 8 8 7 7 8 8 8 8 7 7 7 7 7 6 5 4 4 3 2 2 2 1 2 3 3 3 3 2 2 1 2 3 3 3 3 3 3
2 2 1 3 3 3 4 3 5 4 7 6 6 6 7 7 8 8 8 7 7 6 6 6 7 6 5 4 4 3 2 2 2 1 2 3 3 4 3 2 2 2 2 3 3 3 3 3 2
2 1 2 3 4 4 4 4 5 4 7 6 6 6 6 5 5 6 7 7 7 7 7 7 6 6 5 5 4 3 3 3 2 2 2 2 3 4 3 3 2 2 3 2 3 3 3 3 2
3 3 3 4 4 4 4 4 4 3 6 7 6 5 6 7 6 6 6 7 7 7 7 6 6 6 5 4 3 2 3 2 2 2 2 3 3 4 4 3 3 3 3 3 3 3 2 2 2
4 3 4 5 4 4 5 5 5 5 5 6 5 5 6 7 6 6 6 6 6 6 6 6 6 5 4 3 3 3 2 1 1 1 2 3 3 4 4 3 2 3 3 3 3 3 3 2 2
4 4 3 3 2 3 4 4 5 5 7 8 9 8 8 6 4 5 5 5 6 6 6 6 6 5 5 4 4 3 3 2 2 1 2 2 3 3 3 4 3 3 3 3 3 3 2 1 1
3 4 4 3 1 1 2 3 3 4 4 4 6 7 7 9 9 7 6 6 6 6 7 7 6 6 5 5 3 3 3 2 2 1 1 1 3 3 3 4 3 3 3 3 2 3 3 1 1
5 6 5 3 1 2 2 3 6 5 3 5 6 6 6 7 7 8 7 6 7 7 7 7 7 6 5 5 6 6 4 3 3 2 2 2 2 3 3 3 3 3 3 3 2 2 2 3 1
6 5 3 2 2 1 1 2 7 2 4 6 7 7 7 7 8 8 8 8 7 6 5 5 6 6 5 5 6 6 4 3 2 2 3 2 1 2 3 3 3 3 2 2 2 2 2 2 2
2 4 4 4 3 3 5 4 6 4 8 7 7 7 7 7 8 7 7 6 6 5 4 4 5 5 4 5 5 6 7 5 4 3 3 2 1 1 2 3 3 3 3 3 3 3 3 2 2
4 5 3 4 2 6 3 3 7 6 6 8 9 9 8 8 8 7 6 6 6 6 6 5 6 5 5 5 5 6 7 7 7 5 4 3 2 2 3 3 3 2 2 3 3 3 3 3 3
2 7 6 4 4 4 2 4 6 3 2 3 5 6 6 7 7 8 9 8 8 7 7 6 6 5 6 6 5 5 6 5 4 5 4 4 3 3 4 3 3 3 3 3 3 2 2 2 2
3 3 6 5 2 2 4 3 5 3 2 2 3 4 5 6 7 8 7 7 7 7 7 8 7 5 5 6 5 4 4 4 4 4 4 3 3 3 4 4 3 3 3 3 3 2 2 2 1
4 5 5 3 2 3 3 3 4 4 2 2 4 5 5 4 5 6 6 7 6 6 6 6 7 6 5 5 5 4 4 4 4 4 4 4 4 3 4 3 3 3 3 3 3 3 2 2 1
1 2 3 3 4 4 3 6 5 7 5 4 5 6 6 6 6 6 5 5 5 5 5 5 5 4 4 4 4 4 4 3 3 3 4 4 4 4 4 4 4 4 4 3 4 3 3 3 2
4 4 5 3 3 3 3 7 4 4 3 4 4 4 4 5 5 5 4 4 4 4 4 4 4 4 4 4 4 5 5 4 4 3 4 4 4 4 4 5 4 4 4 4 4 4 3 3 3
Wind_Direction
261 113 96 59 54 54 62 4 114 75 61 54 72 81 83 69 96 134 174 132 130 128 119 112 108 104 98 94 91 88 85 82 83 85 84 83 84 86 87 87 86 85 86 89 90 92 93 94 93
75 98 69 59 78 78 33 328 91 98 133 116 81 83 79 71 87 115 129 139 132 129 123 116 112 107 103 99 94 88 87 87 89 88 88 85 86 88 89 87 86 85 84 87 89 90 92 91 91
241 105 79 70 92 141 158 190 138 107 111 99 81 61 80 111 120 132 152 145 132 129 126 128 119 112 107 104 98 93 90 89 92 94 91 89 88 88 89 88 87 86 86 87 89 89 91 91 89
66 50 56 74 93 176 165 180 138 103 73 72 98 73 66 118 140 139 144 139 127 125 129 135 125 118 113 108 104 98 95 92 93 95 95 91 90 91 91 91 88 85 85 85 88 88 91 92 89
69 71 61 63 85 120 156 161 132 111 97 86 95 94 72 55 115 128 137 136 131 132 134 135 129 125 120 115 110 104 100 95 94 96 98 94 91 92 95 95 92 89 88 87 87 87 88 89 88
61 67 79 74 86 98 131 128 100 95 108 110 104 106 106 126 123 133 138 138 139 140 142 135 134 131 127 121 113 108 102 99 98 97 99 97 93 93 96 97 93 90 94 92 89 83 82 83 82
105 96 120 131 111 82 151 120 112 122 127 136 125 107 129 165 145 137 137 137 136 137 135 130 135 134 132 127 120 116 110 105 103 100 101 100 96 95 96 98 94 93 97 93 86 81 81 79 76
127 105 97 117 128 139 161 110 119 115 117 135 121 128 163 192 151 132 128 128 126 130 138 139 135 130 121 123 128 127 120 111 106 103 101 101 100 98 94 91 96 95 93 90 84 79 79 75 70
92 82 135 180 158 169 134 103 80 90 102 93 101 142 161 152 133 122 114 112 129 140 144 144 147 144 141 144 139 129 118 109 104 101 103 99 81 79 86 88 90 88 86 81 76 74 72 67 63
91 120 205 191 164 161 147 126 127 93 89 85 82 102 129 134 134 137 139 141 146 153 160 157 155 161 159 149 118 98 94 93 87 92 95 91 89 76 84 84 88 86 80 72 69 65 62 56 52
126 163 184 142 143 140 125 121 112 121 129 153 148 150 147 144 145 148 152 153 158 159 157 157 159 157 151 135 129 115 96 96 96 109 114 105 92 73 63 60 63 67 66 53 53 51 50 54 56
112 175 153 150 120 111 124 120 101 143 182 171 158 155 151 151 156 158 158 159 155 152 156 158 156 151 153 142 135 129 122 122 119 125 121 112 100 89 84 76 66 61 58 57 52 56 55 63 67
117 173 140 140 124 129 121 124 128 155 161 150 148 150 155 156 160 163 161 158 152 152 155 158 157 153 151 136 134 120 120 127 126 119 123 122 120 120 108 94 83 78 72 77 68 71 71 70 70
184 154 144 137 129 137 132 147 113 177 146 143 151 157 163 164 166 160 160 162 163 164 158 152 152 151 143 134 131 131 124 113 104 113 122 124 124 127 118 101 88 83 85 92 93 84 81 73 67
139 110 7 181 142 162 118 40 195 191 147 154 161 164 167 171 168 168 174 173 171 169 160 154 152 146 140 137 136 130 119 109 105 110 113 118 120 122 117 109 99 91 97 94 85 75 75 74 68
76 93 232 254 167 184 131 230 255 173 147 168 169 174 174 179 178 177 173 172 169 158 155 155 150 143 142 140 133 127 121 112 109 109 110 115 118 119 111 106 104 99 91 92 95 86 80 68 64
31 169 233 265 197 173 152 217 254 185 158 181 185 185 180 177 179 178 172 171 167 159 156 151 148 148 150 142 133 129 117 112 115 110 112 120 116 115 111 105 105 100 89 84 96 85 97 92 76
222 220 231 230 228 167 169 219 242 195 167 185 193 192 180 180 189 182 171 167 162 156 153 149 143 148 146 131 115 100 91 100 105 112 122 122 118 113 109 103 93 94 90 79 83 88 76 89 87
204 213 242 247 228 163 183 210 231 215 180 189 197 193 187 194 194 173 163 157 152 153 152 151 147 158 148 138 137 135 137 133 113 118 118 119 120 118 110 107 100 102 105 114 110 98 84 64 68
228 228 250 273 237 160 180 225 234 215 199 194 193 196 196 189 177 170 164 157 158 166 164 159 162 161 161 163 160 156 149 145 137 119 109 123 123 123 123 123 121 114 108 102 102 103 97 60 65
242 216 222 235 341 61 106 303 269 251 219 209 195 192 191 183 180 179 175 173 166 170 173 171 170 166 167 158 132 108 81 66 64 78 99 124 129 123 124 134 129 125 124 133 135 129 122 118 16
244 233 213 205 116 260 163 256 272 243 236 214 206 197 192 186 177 176 175 176 178 186 181 170 165 165 166 157 147 146 148 160 184 172 157 146 135 132 131 132 130 131 131 141 156 136 132 131 133
225 231 194 195 175 280 249 190 273 244 236 229 214 204 192 183 174 176 177 177 178 179 175 170 164 165 167 166 163 159 160 173 159 140 138 139 144 144 142 138 133 135 139 145 138 126 122 129 141
176 55 35 47 75 271 235 186 265 226 217 218 213 207 191 181 180 178 178 172 173 169 167 163 162 166 170 167 167 166 165 162 150 154 158 162 160 149 147 143 141 147 148 149 144 136 127 121 120
84 83 30 358 359 257 247 193 245 238 215 202 199 201 192 180 177 174 172 173 177 175 175 170 168 171 173 173 174 174 171 169 170 171 173 171 171 172 180 159 156 155 153 148 137 132 133 134 130
184 140 158 201 226 276 313 227 256 270 216 183 177 180 179 177 175 180 183 182 183 184 176 170 176 180 178 175 174 174 171 170 174 176 174 180 185 187 177 167 163 158 151 144 138 131 141 129 133
154 174 173 154 227 252 276 284 313 353 74 132 151 155 179 184 181 183 185 184 185 185 181 175 171 178 181 177 167 163 169 168 174 178 169 174 180 174 167 166 163 157 149 146 140 134 144 129 139
161 155 101 132 192 252 272 252 238 251 244 204 179 182 195 193 186 184 184 187 189 187 182 174 168 177 179 173 171 163 164 169 168 163 170 179 181 171 160 159 156 154 149 144 138 142 148 132 155
140 132 123 142 169 175 236 263 229 207 207 193 196 190 183 187 187 186 188 191 187 180 173 173 170 164 169 169 167 157 163 158 156 172 182 182 176 168 166 166 160 162 160 154 149 155 148 143 147
177 178 146 160 235 191 198 261 278 198 197 174 182 189 187 186 182 181 176 171 169 176 175 177 173 168 179 177 169 164 161 154 158 176 186 177 173 175 172 166 162 171 167 162 158 160 151 150 153